Back to catalog

STARLINK-5632

AliveCommunicationsVLEO
NORAD 55400·PAYLOAD·🇺🇸 United States

Launched Jan 31, 2023 from Vandenberg Space Force Base

Loading…

Next Passes (next 24 hours)

TLE

FreshSource: CelesTrak SupGP

Epoch: Sep 14, 2026, 14:19 UTC

1 55400C 23014K   26257.59701389  .00058838  00000+0  49320-2 0  2576
2 55400  70.0002 308.1629 0003997 271.5406  14.5931 14.98289527    16

Track STARLINK-5632 in real time with AllMySat

Download on the App Store